Regional Weather Roundup
Issued by NWS

Home | Current Version | Previous Version | Graphics & Text | Print | Product List | Glossary On
Versions: 1 2 3 4 5 6 7 8 9 10 11 12 13 14 15 16 17 18 19 20 21 22 23 24 25 26 27 28 29 30 31 32 33 34 35 36 37 38 39 40 41 42 43 44 45 46 47 48 49 50
000
ASUS43 KDTX 160010
RWRMI
MICHIGAN HOURLY REGIONAL WEATHER ROUNDUP
NATIONAL WEATHER SERVICE DETROIT/PONTIAC MI
800 PM EDT MON SEP 15 2014

NOTE: "FAIR" INDICATES FEW OR NO CLOUDS BELOW 12,000 FEET WITH NO
SIGNIFICANT WEATHER AND/OR OBSTRUCTION TO VISIBILITY.

MIZ047>049-052>055-059>063-066>070-074>076-081>083-160100-
SOUTHEAST LOWER MICHIGAN

CITY           SKY/WX    TMP DP  RH WIND       PRES   REMARKS
ADRIAN         CLOUDY    54  52  93 W3        30.10S
6HR MIN TEMP:  54; 6HR MAX TEMP:  60; 6HR PCP:  0.03;

ALMA           LGT RAIN  54  52  94 CALM      30.10S
ANN ARBOR      LGT RAIN  57  51  80 CALM      30.08R
BAD AXE        DRIZZLE   54  54  99 CALM      30.08F
6HR MIN TEMP:  54; 6HR MAX TEMP:  61;

DETROIT CITY   CLOUDY    61  49  64 CALM      30.07S
6HR MIN TEMP:  61; 6HR MAX TEMP:  62;

DETROIT        CLOUDY    58  54  86 S7        30.09R
6HR MIN TEMP:  58; 6HR MAX TEMP:  61; 6HR PCP:  0.01;

FLINT          LGT RAIN  57  52  83 N10       30.09R
6HR MIN TEMP:  57; 6HR MAX TEMP:  67; 6HR PCP:  0.07;

GROSSE ILE     LGT RAIN  59  54  82 SW8       30.08R
HILLSDALE      LGT RAIN  55  54  98 CALM      30.10R
HOWELL         RAIN      54  52  94 W6        30.08S
6HR MIN TEMP:  54; 6HR MAX TEMP:  62;


CITY           SKY/WX    TMP DP  RH WIND       PRES   REMARKS
JACKSON        CLOUDY    55  50  83 N7G17     30.09R
6HR MIN TEMP:  55; 6HR MAX TEMP:  61; 6HR PCP: TRACE;

LAMBERTVILLE   RAIN      55  52  88 SW5       30.10S
LANSING        HVY RAIN  53  51  93 N8        30.10R FOG
6HR MIN TEMP:  54; 6HR MAX TEMP:  64; 6HR PCP:  0.08;

LAPEER         NOT AVBL
MASON          LGT RAIN  54  51  88 W3        30.09R
6HR MIN TEMP:  54; 6HR MAX TEMP:  62;

MONROE         LGT RAIN  55  54  94 W5        30.07F
MT. CLEMENS    LGT RAIN  57  52  82 SW3       30.06R
6HR MIN TEMP:  58; 6HR MAX TEMP:  61; 6HR PCP: TRACE;

PONTIAC        LGT RAIN  56  51  84 W8        30.08R
6HR MIN TEMP:  56; 6HR MAX TEMP:  62; 6HR PCP:  0.02;

PORT HOPE        N/A     55  51  86 W3        30.07S
6HR MIN TEMP:  55; 6HR MAX TEMP:  59;

PORT HURON     LGT RAIN  55  54  94 CALM      30.07R
TRI CITIES     LGT RAIN  55  52  89 NW5       30.10S
6HR MIN TEMP:  55; 6HR MAX TEMP:  61; 6HR PCP:  0.11;

YPSILANTI      CLOUDY    62  52  69 SW5       30.09R
6HR MIN TEMP:  61; 6HR MAX TEMP:  64;

$$
MIZ043>046-050>051-056>058-064>065-071>073-077>080-160100-
SOUTHWEST LOWER MICHIGAN

CITY           SKY/WX    TMP DP  RH WIND       PRES   REMARKS
BATTLE CREEK   LGT RAIN  55  51  86 W8        30.10R
6HR MIN TEMP:  55; 6HR MAX TEMP:  63; 6HR PCP:  0.01;

BENTON HARBOR  CLOUDY    58  51  78 NW6       30.09S
6HR MIN TEMP:  57; 6HR MAX TEMP:  63; 6HR PCP: TRACE;

BIG RAPIDS     LGT RAIN  52  52 100 CALM      30.10S
6HR MIN TEMP:  52; 6HR MAX TEMP:  56; 6HR PCP:  0.14;

COLDWATER      CLOUDY    56  54  94 W3        30.10R
6HR MIN TEMP:  56; 6HR MAX TEMP:  61;

HOLLAND        CLOUDY    56  54  93 CALM      30.10S
6HR MIN TEMP:  56; 6HR MAX TEMP:  61; 6HR PCP:  0.06;

GRAND RAPIDS   LGT RAIN  55  53  93 N5        30.10S
6HR MIN TEMP:  55; 6HR MAX TEMP:  62; 6HR PCP:  0.06;

KALAMAZOO      LGT RAIN  55  51  86 CALM      30.11S FOG
6HR MIN TEMP:  55; 6HR MAX TEMP:  64; 6HR PCP:  0.02;

MARSHALL       CLOUDY    56  51  85 NW5       30.09R
MUSKEGON       CLOUDY    55  52  89 N6        30.11S
6HR MIN TEMP:  55; 6HR MAX TEMP:  59; 6HR PCP:  0.02;

$$
MIZ016>042-160100-
NORTHERN LOWER MICHIGAN

CITY           SKY/WX    TMP DP  RH WIND       PRES   REMARKS
ALPENA         CLOUDY    53  49  86 CALM      30.07S
6HR MIN TEMP:  53; 6HR MAX TEMP:  60;

BEAVER ISLAND  CLOUDY    57  47  69 W6        30.09S
6HR MIN TEMP:  57; 6HR MAX TEMP:  62;

BELLAIRE       PTCLDY    50  46  87 CALM      30.09S
6HR MIN TEMP:  50; 6HR MAX TEMP:  61;

CADILLAC       CLOUDY    51  50  99 CALM      30.09S
CHARLEVOIX     PTCLDY    55  43  65 W7        30.12S
6HR MIN TEMP:  55; 6HR MAX TEMP:  60;

FRANKFORT      PTCLDY    54  47  77 CALM      30.10S
GAYLORD        MOCLDY    51  43  74 NW5       30.08S
6HR MIN TEMP:  51; 6HR MAX TEMP:  57;

GRAYLING       CLOUDY   N/A N/A N/A W5        30.10R
HARBOR SPRINGS LGT RAIN  55  44  66 NW7       30.09R
HOUGHTON LAKE  CLOUDY    51  49  92 NW3       30.09F
6HR MIN TEMP:  51; 6HR MAX TEMP:  55; 6HR PCP:  0.04;

MANISTEE       MOCLDY    54  46  76 CALM      30.11S
OSCODA         CLOUDY    53  51  93 W5        30.06S
PELLSTON       PTCLDY    52  48  86 W5        30.09R
6HR MIN TEMP:  52; 6HR MAX TEMP:  64; 6HR PCP: TRACE;

TRAVERSE CITY  PTCLDY    56  44  64 NW3       30.09R
6HR MIN TEMP:  56; 6HR MAX TEMP:  59;

$$
MIZ007>008-015-160100-
EASTERN UPPER MICHIGAN

CITY           SKY/WX    TMP DP  RH WIND       PRES   REMARKS
KINROSS        CLEAR     50  45  81 NW7       30.07S
6HR MIN TEMP:  50; 6HR MAX TEMP:  59;

MACKINAC ISLAN CLOUDY    55  48  77 W6        30.07S
6HR MIN TEMP:  54; 6HR MAX TEMP:  60;

NEWBERRY       CLEAR     50  43  77 NW6       30.09R
S. S. MARIE    CLEAR     51  43  74 W6        30.07R
6HR MIN TEMP:  51; 6HR MAX TEMP:  58;

$$
MIZ004>006-011>014-085-160100-
CENTRAL UPPER MICHIGAN

CITY           SKY/WX    TMP DP  RH WIND       PRES   REMARKS
MANISTIQUE     CLOUDY    52  48  84 NW3       30.09S
ESCANABA       PTCLDY    54  48  82 NE5       30.10R
6HR MIN TEMP:  54; 6HR MAX TEMP:  61; 6HR PCP:  0.04;

MENOMINEE      CLEAR     55  45  67 CALM      30.09S
6HR MIN TEMP:  55; 6HR MAX TEMP:  63;

SAWYER-GWINN   CLOUDY    52  46  82 E3        30.10R
$$
MIZ001>003-009>011-084-160100-
WESTERN UPPER MICHIGAN

CITY           SKY/WX    TMP DP  RH WIND       PRES   REMARKS
IRON MOUNTAIN  PTCLDY    55  40  56 NW7       30.10R
6HR MIN TEMP:  55; 6HR MAX TEMP:  62; 6HR PCP: TRACE;

HOUGHTON       CLEAR     49  39  68 W10       30.10S
6HR MIN TEMP:  49; 6HR MAX TEMP:  56;

COPPER HARBOR    N/A     51  40  65 VRB6      30.08S
6HR MIN TEMP:  51; 6HR MAX TEMP:  56;

IRONWOOD       CLEAR     48  39  71 W6        30.13S
6HR MIN TEMP:  48; 6HR MAX TEMP:  55;

$$

ABBREVIATIONS USED IN REMARKS
   TC - TEMPERATURE IN CELSIUS
  WCI - WIND CHILL INDEX
   HX - HEAT INDEX
  VSB - VISIBILITY



USA.gov is the U.S. government's official web portal to all federal, state and local government web resources and services.